Logos SINP

Liste des ZNIEFF

Département : Haute-Vienne

Liste des ZNIEFF continentales

Code Nom Superficie (ha) Date création Fiche
740006167 BOIS DE CROSAS (VASSIVIÈRE) 134,89 01/01/1982
740006198 BOIS DE LA TOURETTE 119,22 01/01/1982
740008249 BOIS DES ESSARTS 702,41 01/01/1982
740008248 BOIS DES LANDILLES ET DU MAS BOUCHER 289,12 01/01/1982
740120060 BOIS ET CAVES DE LA ZONE CENTRALE (MONTS D'AMBAZAC) 1353,47 01/01/1982
740120151 BRANDES DES BOIS DU ROI 29,12 01/01/1982
740002769 ETANG DE BALLERAND 127,1 01/01/1982
740002792 ETANG DE BELLEPERCHE 11,04 01/01/1982
740120158 ETANG DE BOUTILLY 22,6 01/01/1982
740002791 ETANG DE CIEUX 58,35 01/01/1982
740120143 ETANG DE CRORIEUX 21,84 01/01/1982
740000667 ETANG DE GOUILLET (MONTS D'AMBAZAC) 74,94 01/01/1982
740006187 ETANG DE LA CROUZILLE (MONTS D'AMBAZAC) 144,55 01/01/1982
740002771 ETANG DE LA MAZERE 111,46 01/01/1982
740120048 ETANG DE LA MONNERIE (VALLÉE DE LA TARDOIRE) 30,11 01/01/1982
740002790 ETANG DE LA POUGE 227,87 01/01/1982
740002772 ETANG DE LA RIBIERE 15,51 01/01/1982
740000080 ETANG DE MOUSTIERS 63,04 01/01/1982
740000081 ETANG DE MURAT 141,74 01/01/1982
740006189 ETANG DE SAGNAT 24,29 01/01/1982
740000666 ETANG DE TRICHERIE ( ETANGS DE LA REGION DE THOURON) 225,08 01/01/1982
740120149 ETANG DE VIEULAC 9,38 01/01/1982
740008132 ETANG DE VITRAT 153,53 01/01/1982
740002770 ETANG DES AGUZONS 15,06 01/01/1982
740120159 ETANG DES PLANCHETTES 30,76 01/01/1982
740120145 ETANG DU PONT À L'AGE 49,21 01/01/1982
740002789 ETANG DU RISCHAUVERON (GRAND ETANG), 44,41 01/01/1982
740120142 ETANGS D'AIGUEPERSE ET SIVERGNAT 108,95 01/01/1982
740002777 ETANGS DE FROMENTAL ET CHAOS ROCHEUX DE LA ROCHE AUX FEES 88,41 01/01/1982
540003497 ETANGS DE LA FORET DE BRIGUEUIL 62,04 01/01/1982
740007681 ETANGS DE LA RÉGION DE THOURON 672,31 01/01/1982
740002767 ETANGS DE MARSAGUET ET DE LA BRINDE 47,27 01/01/1982
740120147 ETANG-TOURBIERE DE VALLÉGEAS 22,01 01/01/1982
740030037 FILON DE QUARTZ DE FROCHET A CEINTURAT 548,44 30/01/2013
740120146 FORET D'AIXE (=DES LOGES) 431,26 01/01/1982
740006082 FORET DE LA FEUILLADE (VASSIVIÈRE) 407,86 01/01/1982
740120109 FORET DE MONTARD 450,7 01/01/1982
740000070 FORET DE ROCHECHOUART 559,93 01/01/1982
740002761 FORET D'EPAGNE 536,79 01/01/1982
740002784 FORET DES COUTUMES 494,47 01/01/1982
740000066 FORET ET ZONE HUMIDE DE BOUBON 212,91 01/01/1982
240031265 HAUT BASSIN VERSANT DE L'ANGLIN ET DU PORTEFEUILLE 2933,07 01/01/1982
740000044 LAC DE VASSIVIÈRE 7597,65 01/01/1982
740002779 LANDE DE CEINTURAT 88,62 01/01/1982
740120150 LANDE DE CHÉNEVIÈRES 19,62 01/01/1982
740120135 LANDE DE CHERUGAT 17,17 01/01/1982
740030028 LANDE DE CHEZ-BOITE 53,76 27/11/2012
740120047 LANDE DE FORGEAS (VALLÉE DE LA TARDOIRE) 17,15 01/01/1982
740120137 LANDE DE LA HAUTE-RENAUDIE 36,5 01/01/1982
740120049 LANDE DE LA MARTINIE (VALLÉE DE LA TARDOIRE) 32,86 01/01/1982
740002764 LANDE DE LA PETITE MONNERIE 5,92 01/01/1982
740030010 LANDE DE PUY CHABROL 26,37 13/03/2012
740120155 LANDE DES JAROSSES 31,53 01/01/1982
240030027 LANDE DU COURY ET ETANG DU PONTAUZIER 20,92 01/01/1982
740120059 LANDE DU PUY PÉNY (MONTS D'AMBAZAC) 15,85 01/01/1982
740120139 LANDE DU RUISSEAU DE LA ROUBARDIE 27,61 01/01/1982
740030008 LANDE ET TOURBIERE DE CHANTE RIBIERE ET DE MAILLAUFARGUEIX 44,24 13/03/2012
740120138 LANDES DU COURY 265,23 01/01/1982
740002778 LANDES DU MONT GARGAN 82,03 01/01/1982
740002773 LANDES ET BOIS DE LA BUTTE DE FROCHET 244,63 01/01/1982
740120134 LANDES ET ETANG DE VILLEMEDEIX ET BRAMEFAN 93,6 01/01/1982
740000065 LANDES ET PRAIRIES DU PUY DOUMEAU 257,45 01/01/1982
740120140 LANDES ET PRAIRIES HUMIDES DU THEILLAUD ET DES TUILERIES 133,92 01/01/1982
740120144 MARAIS ET ZONE HUMIDE DES VALADES 223,89 01/01/1982
740030032 MINE DE CHABANNES ET SOUTERRAINS DES MONTS D'AMBAZAC 290,62 27/11/2012
740006188 MONTS D'AMBAZAC ET VALLÉE DE LA COUZE 11577,04 01/01/1982
740030009 PLANCHES SECHES ET GRANDES LANDES 171,48 13/03/2012
740030014 RESEAU HYDROGRAPHIQUE DE LA HAUTE DRONNE 959,71 27/11/2012
740007673 ROCHERS ET CAVES DU CHATEAU DE ROCHECHOUART 7,16 01/01/1982
740120156 RUISSEAU DE LACELLE À FIRMIGIER 125,3 01/01/1982
740120152 RUISSEAU DE L'AUZETTE À L'AMONT DE L'ÉTANG DE CORDELAS 73,3 01/01/1982
740120154 RUISSEAU DE MOISSANNES (= DE PALLAND) 128,9 01/01/1982
740030033 RUISSEAU DE NAUZON (RESEAU HYDROGRAPHIQUE DE LA TARDOIRE ET DU TRIEUX SECTEUR HAUTE VIENNE) 131,36 27/11/2012
740120153 RUISSEAU DES FONTENELLES 145,86 01/01/1982
740000069 SERPENTINE DE LA FLOTTE ET DU CLUZEAU 133,01 01/01/1982
740120148 SERPENTINE DE LA RIBIÈRE 17,94 01/01/1982
740002765 SERPENTINE DE LA VILLEDIEU 33,29 01/01/1982
740000068 SERPENTINE DE SAINT-LAURENT 69,58 01/01/1982
740002768 SERPENTINE DES PIERRES DU MAS (= DE LA PORCHERIE) 34,03 01/01/1982
740030034 SITE A CHAUVE-SOURIS DE FORET VIEILLE 1,12 27/11/2012
740030035 SITE A CHAUVE-SOURIS DE L'EGLISE DE SAINT SORNIN LEULAC 315,89 27/11/2012
740120162 SITE A CHAUVES-SOURIS : CAVES ET BOIS DE VALMATE 109,08 01/01/1982
740007674 SITE À CHAUVES-SOURIS : FORET ET ANCIENNE MINE DE CHAMPVERT 57,21 01/01/1982
740007676 SITE À CHAUVES-SOURIS : MAISON DE RETRAITE ET PARC DE LADIGNAC 9,13 01/01/1982
740120163 SITE À CHAUVES-SOURIS DES MONTS D'AMBAZAC : ANCIENNE CARRIERE ET MINES DU PUY BERNARD 17,04 01/01/1982
740120052 SITE À CHAUVES-SOURIS DES MONTS D'AMBAZAC : CHANTOT-VAUGUENIGE 6,65 01/01/1982
740120053 SITE À CHAUVES-SOURIS DES MONTS D'AMBAZAC : LES COURRIERES 401,27 01/01/1982
740120056 SITE À CHAUVES-SOURIS DES MONTS D'AMBAZAC : MINE DE CHABANNES 19,13 01/01/1982
740120057 SITE À CHAUVES-SOURIS DES MONTS D'AMBAZAC : MINE DE VENACHAT ET DE LA BACHELLERIE 53,89 01/01/1982
740120054 SITE À CHAUVES-SOURIS DES MONTS D'AMBAZAC : MOULIN DE L'AGE 15,84 01/01/1982
740120055 SITE À CHAUVES-SOURIS DES MONTS D'AMBAZAC : RUINES DU CHATEAU DE MONISME 8,46 01/01/1982
740002776 TOURBIERE DE BEAUMONT (VASSIVIÈRE) 15,55 01/01/1982
740007689 TOURBIERE DE FRIAULOUSE 142,98 01/01/1982
740006166 TOURBIERE DE LA ROUTE ELEVEE (VASSIVIÈRE) 25,15 01/01/1982
740000059 TOURBIÈRE DE MALLETY 43,34 01/01/1982
740030011 TOURBIERE DE MASREMBERT 12,61 13/03/2012
740000060 TOURBIERE DE PIOFFRET 28,9 01/01/1982
740000090 TOURBIERE DES DAUGES (MONTS D'AMBAZAC) 214,26 01/01/1982
740120038 TOURBIERE DES RIBIERES DE GLADIERES (VASSIVIÈRE) 57,96 01/01/1982
740120037 TOURBIERE DU BOIS DE CROSAS ET LANDES DES ROCHES BRUNAGÈRES (VASSIVIÈRE) 103,76 01/01/1982
740120063 TOURBIERE DU BOIS DES VERGNES (VALLÉE DE L'AUVEZERE) 21,9 01/01/1982
740120141 TOURBIERE DU PETIT MOULIN DE VEYRAC 8,26 01/01/1982
740007680 VALLÉE DE L'ISLE AU CHALARD 95,76 01/01/1982
740002782 VALLÉE DE LA BENAIZE 92,09 01/01/1982
740006208 VALLÉE DE LA BOUCHEUSE AUX BIARDS 131,88 01/01/1982
740000063 VALLÉE DE LA BOUCHEUSE ET ETANG DE CHAUFFAILLE 177,03 01/01/1982
740002786 VALLÉE DE LA BRIANCE AU PONT DE NEUVILLARD 228,4 01/01/1982
740000097 VALLÉE DE LA GARTEMPE : SAUT DE LA BRAME 24,4 01/01/1982
740002763 VALLÉE DE LA GARTEMPE A CHATEAUPONSAC 369,42 01/01/1982
740120051 VALLÉE DE LA GARTEMPE À L'AMONT DU PONT DE LANNEAU 23,69 01/01/1982
740002783 VALLÉE DE LA GARTEMPE AU VIADUC DE ROCHEROLLES 87,01 01/01/1982
740120050 VALLÉE DE LA GARTEMPE SUR L'ENSEMBLE DE SON COURS 3978,62 01/01/1982
740000056 VALLÉE DE LA GLANE-SITE COROT-LE MOULIN DU DEROT 114,24 01/01/1982
740000058 VALLÉE DE LA GLAYEULE 342,94 01/01/1982
740000092 VALLÉE DE LA GORRE ET DU GORRET 82,21 01/01/1982
740002785 VALLÉE DE LA LIGOURE ET DE LA BRIANCE AU CHATEAU DE CHALUSSET 132,12 01/01/1982
740006164 VALLÉE DE LA MAULDE VERS CHATAIGNOUX FAFREIX (VASSIVIÈRE) 102,46 01/01/1982
740120136 VALLÉE DE LA SEMME AU MOULIN D'HERVAUD 26,2 01/01/1982
740000072 VALLÉE DE LA TARDOIRE (DU MOULIN DE CROS A PEYRASSOULAT) 2130,18 01/01/1982
740007677 VALLÉE DE LA VIENNE A BOUCHEFAROL (VALLEE DE LA VIENNE) 227,48 01/01/1982
740002762 VALLÉE DE LA VIENNE A BUSSY-VARACHE (VALLEE DE LA VIENNE) 795,06 01/01/1982
740007690 VALLÉE DE LA VIENNE A LA CONFLUENCE DE LA BRIANCE 108,26 01/01/1982
740006181 VALLÉE DE LA VIENNE A LA CONFLUENCE DU RUISSEAU DES RACHES 43,93 01/01/1982
740007683 VALLÉE DE LA VIENNE A LA CONLUENCE DE LA COMBADE 115,11 01/01/1982
740006180 VALLÉE DE LA VIENNE AU MAS-MARVENT 179,25 01/01/1982
740002766 VALLÉE DE LA VIENNE AUX 3 PONTS DE MASLEON (VALLEE DE LA VIENNE) 62,23 01/01/1982
740120020 VALLÉE DE LA VIENNE DE SERVIÈRES À SAINT LÉONARD 2687,89 01/01/1982
740006179 VALLÉE DE LA VIENNE DU MOULIN DE LA MIE AU DAUMAIL 158,84 01/01/1982
740002775 VALLÉE DE L'AURENCE AU MEYNIEUX 76,24 01/01/1982
740006146 VALLÉE DE L'AUVEZERE 1003,44 01/01/1982
740002774 VALLÉE DU TAURION A LA CONFLUENCE DU RUISSEAU DU PARLEUR (VALLEE DU TAURION) 103,41 01/01/1982
740120034 VALLÉE DU TAURION À L'AVAL DU BARRAGE DE L'ÉTROIT 246,64 01/01/1982
740002787 VALLÉE DU TAURION, DES SOURCES À LA CONFLUENCE AVEC LA VIENNE 8816,26 01/01/1982
740000071 VALLÉE SUPERIEURE DE LA VALOINE AUX AULIÈRES 179,76 01/01/1982
740007687 ZONE HUMIDE DES MOUNIERES 3,92 01/01/1982